Klawock, AK

11:10 AM AKDT on March 27, 2017 (GMT -0800)
Klawock

Weather History for PAKW - May, 2013

Change the Weather History Date:

Wednesday, May 1, 2013

  Actual Average Record
Temperature  
Mean Temperature 42 °F -  
Max Temperature 48 °F 51 °F 66 °F (2014)
Min Temperature 37 °F 34 °F 32 °F (1997)
Degree Days  
Heating Degree Days 22    
Moisture  
Dew Point 40 °F    
Average Humidity 86    
Maximum Humidity 93    
Minimum Humidity 81    
Precipitation  
Precipitation 0.53 in - - ()
Sea Level Pressure  
Sea Level Pressure 30.14 in    
Wind  
Wind Speed 6 mph (SSE)    
Max Wind Speed 15 mph    
Max Gust Speed 28 mph    
Visibility 8 miles    
Events Rain    
Averages and records for this station are not official NWS values.
T = Trace of Precipitation, MM = Missing Value Source: NWS Daily Summary

Daily Weather History Graph

Daily Weather History Graph

Search for Another Location

Airport or City:

Trip Planner

Search our weather history database for the weather conditions in past years. The results will help you decide how hot, cold, wet, or windy it might be!

Date:

Astronomy

May. 01, 2013 Rise Set
Actual Time 5:09 AM AKDT 8:30 PM AKDT
Civil Twilight 4:25 AM AKDT 9:15 PM AKDT
Nautical Twilight 3:25 AM AKDT 10:16 PM AKDT
Astronomical Twilight 1:52 AM AKDT 11:53 PM AKDT
Moon 1:46 AM AKDT (5/1) 10:57 AM AKDT (5/1)
Length of Visible Light 16h 50m
Length of Day
15h 21m
Waning Gibbous, 57% of the Moon is Illuminated
May 1
Waning Gibbous
May 2
Last Quarter
May 9
New
May 17
First Quarter
May 24
Full

Hourly Weather History & Observations

Time (AKDT) Temp. Windchill Dew Point Humidity Pressure Visibility Wind Dir Wind Speed Gust Speed Precip Events Conditions
12:34 AM 39.2 °F 35.0 °F 33.8 °F 81% 30.30 in 10.0 mi Variable 5.8 mph - 0.00 in Rain Light Rain
12:53 AM 39.0 °F 36.8 °F 34.0 °F 82% 30.30 in 10.0 mi Variable 3.5 mph - 0.00 in Rain Light Rain
1:53 AM 39.0 °F 34.0 °F 34.0 °F 82% 30.28 in 8.0 mi Variable 6.9 mph - 0.02 in Rain Light Rain
2:53 AM 37.9 °F 35.5 °F 35.1 °F 89% 30.26 in 5.0 mi Variable 3.5 mph - 0.03 in Rain Light Rain
3:53 AM 39.0 °F 35.7 °F 35.1 °F 86% 30.24 in 8.0 mi Variable 4.6 mph - 0.03 in Rain Light Rain
4:53 AM 39.0 °F 35.7 °F 35.1 °F 86% 30.21 in 7.0 mi Variable 4.6 mph - 0.04 in Rain Light Rain
5:22 AM 37.4 °F 32.8 °F 35.6 °F 93% 30.19 in 5.0 mi Variable 5.8 mph - 0.04 in Rain Light Rain
5:53 AM 37.9 °F - 35.1 °F 89% 30.18 in 5.0 mi Calm Calm - 0.07 in Rain Light Rain
6:03 AM 37.4 °F 32.8 °F 35.6 °F 93% 30.18 in 10.0 mi Variable 5.8 mph - 0.00 in Rain Light Rain
6:53 AM 39.0 °F 34.0 °F 35.1 °F 86% 30.16 in 7.0 mi Variable 6.9 mph - 0.02 in Rain Light Rain
7:53 AM 39.0 °F 35.7 °F 35.1 °F 86% 30.15 in 4.0 mi Variable 4.6 mph 16.1 mph 0.09 in Rain Rain
8:53 AM 39.9 °F 35.1 °F 36.0 °F 86% 30.13 in 6.0 mi Variable 6.9 mph - 0.07 in Rain Light Rain
9:53 AM 41.0 °F 37.1 °F 37.0 °F 86% 30.11 in 9.0 mi Variable 5.8 mph - 0.02 in Rain Light Rain
10:53 AM 43.0 °F 37.7 °F 39.0 °F 86% 30.07 in 10.0 mi SSE 9.2 mph 17.3 mph 0.02 in Rain Light Rain
11:53 AM 45.0 °F 40.1 °F 41.0 °F 86% 30.06 in 4.0 mi SSE 9.2 mph 20.7 mph 0.00 in Rain Light Rain
12:09 PM 44.6 °F 40.2 °F 41.0 °F 87% 30.05 in 4.0 mi SSE 8.1 mph 20.7 mph 0.00 in Rain Light Rain
12:53 PM 46.9 °F - 42.1 °F 83% 30.05 in 6.0 mi South 12.7 mph 24.2 mph 0.02 in Rain Light Rain
1:18 PM 46.4 °F 40.4 °F 42.8 °F 87% 30.06 in 5.0 mi South 13.8 mph 25.3 mph 0.02 in Rain Light Rain
1:53 PM 46.9 °F - 43.0 °F 86% 30.08 in 6.0 mi South 11.5 mph 21.9 mph 0.05 in Rain Light Rain
2:53 PM 46.9 °F - 43.0 °F 86% 30.08 in 7.0 mi South 9.2 mph 20.7 mph 0.03 in Rain Light Rain
3:23 PM 48.2 °F - 42.8 °F 82% 30.07 in 8.0 mi South 15.0 mph 27.6 mph 0.00 in Rain Light Rain
3:53 PM 48.0 °F - 43.0 °F 83% 30.08 in 6.0 mi SSE 12.7 mph 25.3 mph 0.00 in Rain Light Rain
4:53 PM 48.0 °F - 44.1 °F 86% 30.08 in 9.0 mi Variable 6.9 mph 18.4 mph 0.01 in Rain Light Rain
5:53 PM 48.0 °F - 44.1 °F 86% 30.09 in 8.0 mi Variable 4.6 mph - 0.01 in Rain Light Rain
6:29 PM 48.2 °F - 44.6 °F 87% 30.09 in 10.0 mi SSE 8.1 mph - 0.00 in   Overcast
6:53 PM 48.0 °F - 44.1 °F 86% 30.09 in 10.0 mi Variable 4.6 mph - 0.00 in   Overcast
7:53 PM 48.0 °F - 44.1 °F 86% 30.10 in 10.0 mi Variable 4.6 mph - 0.00 in   Overcast
8:53 PM 48.0 °F - 44.1 °F 86% 30.11 in 10.0 mi Calm Calm - N/A   Overcast
9:53 PM 46.0 °F - 44.1 °F 93% 30.12 in 10.0 mi Calm Calm - N/A   Overcast
10:53 PM 46.0 °F - 42.1 °F 86% 30.13 in 10.0 mi Calm Calm - N/A   Overcast
11:53 PM 46.0 °F - 42.1 °F 86% 30.14 in 10.0 mi Calm Calm - N/A   Overcast